#timestamp,LO_Frequency,Hit,Temp,Hum 
1480305615.4,286047041.9,N,0.0,0.0
1480305635.2,286047041.2,N,0.0,0.0
1480305655.0,286047037.1,N,0.0,0.0
1480305655.9,286047037.1,N,0.0,0.0
1480305675.8,286047035.3,N,0.0,0.0
1480305695.6,286047036.4,N,0.0,0.0
1480305715.5,286047032.3,N,0.0,0.0
1480305735.3,286047032.3,N,0.0,0.0
1480305755.1,286047032.6,N,0.0,0.0
1480305775.9,286047033.1,N,0.0,0.0
1480305795.7,286047031.0,N,0.0,0.0
1480305815.6,286047026.9,N,0.0,0.0
1480305835.4,286047028.2,N,0.0,0.0
1480305855.2,286047026.5,N,0.0,0.0
1480305875.1,286047024.1,N,0.0,0.0
1480305876.0,286047024.1,N,0.0,0.0
1480305895.8,286047022.5,N,0.0,0.0
1480305915.6,286047022.7,N,0.0,0.0
1480305935.5,286047020.8,N,0.0,0.0
1480305955.3,286047018.9,N,0.0,0.0
1480305975.2,286047019.6,N,0.0,0.0
1480305995.9,286047019.8,N,0.0,0.0
1480306015.7,286047017.3,N,0.0,0.0
1480306035.6,286047017.4,N,0.0,0.0
1480306055.4,286047015.7,N,0.0,0.0
1480306075.2,286047017.1,N,0.0,0.0
1480306095.1,286047017.2,N,0.0,0.0
1480306096.0,286047017.2,N,0.0,0.0
1480306115.8,286047014.7,N,0.0,0.0
1480306135.7,286047013.0,N,0.0,0.0
1480306155.5,286047012.9,N,0.0,0.0
1480306175.3,286047013.4,N,0.0,0.0
1480306195.2,286047011.1,N,0.0,0.0
1480306215.9,286047011.7,N,0.0,0.0
1480306235.7,286047012.3,N,0.0,0.0
1480306255.6,286047010.0,N,0.0,0.0
1480306275.4,286047007.9,N,0.0,0.0
1480306295.3,286047009.1,N,0.0,0.0
1480306315.1,286047006.2,N,0.0,0.0
1480306316.0,286047006.2,N,0.0,0.0
1480306335.8,286047006.6,N,0.0,0.0
1480306355.7,286047007.4,N,0.0,0.0
1480306375.5,286047004.5,N,0.0,0.0
1480306395.3,286047005.4,N,0.0,0.0
1480306415.2,286047002.9,N,0.0,0.0
1480306435.0,286047003.1,N,0.0,0.0
1480306435.9,286047003.1,N,0.0,0.0
1480306455.8,286047004.3,N,0.0,0.0
1480306475.6,286047001.8,N,0.0,0.0
1480306495.4,286047001.6,N,0.0,0.0
1480306515.3,286047002.4,N,0.0,0.0
1480306535.1,286047002.4,N,0.0,0.0
1480306555.9,286047000.2,N,0.0,0.0
1480306575.7,286047000.0,N,0.0,0.0
1480306595.5,286047000.1,N,0.0,0.0
1480306615.4,286047000.6,N,0.0,0.0
1480306635.2,286046998.4,N,0.0,0.0
1480306655.0,286046999.1,N,0.0,0.0
1480306655.9,286046999.1,N,0.0,0.0
1480306675.8,286046999.5,N,0.0,0.0
1480306695.6,286046999.5,N,0.0,0.0
1480306715.5,286046996.7,N,0.0,0.0
1480306735.3,286046997.2,N,0.0,0.0
1480306755.1,286046998.0,N,0.0,0.0
1480306775.9,286046995.1,N,0.0,0.0
1480306795.7,286046996.1,N,0.0,0.0
1480306815.5,286046995.7,N,0.0,0.0
1480306835.4,286046996.3,N,0.0,0.0
1480306855.2,286046993.7,N,0.0,0.0
1480306875.1,286046993.4,N,0.0,0.0
1480306876.0,286046993.4,N,0.0,0.0
1480306895.8,286046994.2,N,0.0,0.0
1480306915.6,286046994.4,N,0.0,0.0
1480306935.5,286046992.2,N,0.0,0.0
1480306955.3,286046992.5,N,0.0,0.0
1480306975.2,286046992.6,N,0.0,0.0
1480306995.9,286046992.2,N,0.0,0.0
1480307015.7,286046992.2,N,0.0,0.0
1480307035.6,286046994.7,N,0.0,0.0
1480307055.4,286046992.6,N,0.0,0.0
1480307075.2,286046992.5,N,0.0,0.0
1480307095.1,286046993.2,N,0.0,0.0
1480307096.0,286046993.2,N,0.0,0.0
1480307115.8,286046990.1,N,0.0,0.0
1480307135.7,286046990.2,N,0.0,0.0
1480307155.5,286046990.1,N,0.0,0.0
1480307175.3,286046991.4,N,0.0,0.0
1480307195.2,286046988.6,N,0.0,0.0
1480307215.0,286046988.7,N,0.0,0.0
1480307215.9,286046988.7,N,0.0,0.0
1480307235.8,286046990.0,N,0.0,0.0
1480307255.6,286046987.3,N,0.0,0.0
1480307275.4,286046987.5,N,0.0,0.0
1480307295.3,286046987.6,N,0.0,0.0
1480307315.1,286046988.2,N,0.0,0.0
1480307335.8,286046987.7,N,0.0,0.0
1480307355.7,286046985.7,N,0.0,0.0
1480307375.5,286046985.9,N,0.0,0.0
1480307395.4,286046986.6,N,0.0,0.0
1480307415.2,286046986.3,N,0.0,0.0
1480307435.0,286046984.2,N,0.0,0.0
1480307435.9,286046984.2,N,0.0,0.0
1480307455.8,286046984.5,N,0.0,0.0
1480307475.6,286046982.1,N,0.0,0.0
1480307495.5,286046982.8,N,0.0,0.0
1480307515.3,286046980.5,N,0.0,0.0
1480307535.1,286046980.5,N,0.0,0.0
1480307555.9,286046981.0,N,0.0,0.0
1480307575.7,286046980.6,N,0.0,0.0
1480307595.5,286046981.4,N,0.0,0.0
1480307615.4,286046981.7,N,0.0,0.0
1480307635.2,286046978.9,N,0.0,0.0
1480307655.1,286046979.1,N,0.0,0.0
1480307656.0,286046979.1,N,0.0,0.0
1480307675.8,286046980.0,N,0.0,0.0
1480307695.6,286046980.2,N,0.0,0.0
1480307715.5,286046979.9,N,0.0,0.0
1480307735.3,286046980.3,N,0.0,0.0
1480307755.2,286046980.4,N,0.0,0.0
1480307775.9,286046977.7,N,0.0,0.0
1480307795.7,286046978.1,N,0.0,0.0
1480307815.6,286046978.0,N,0.0,0.0
1480307835.4,286046978.6,N,0.0,0.0
1480307855.2,286046975.7,N,0.0,0.0
1480307875.1,286046976.3,N,0.0,0.0
1480307876.0,286046976.3,N,0.0,0.0
1480307895.8,286046976.5,N,0.0,0.0
1480307915.7,286046976.7,N,0.0,0.0
1480307935.5,286046974.1,N,0.0,0.0
1480307955.3,286046974.7,N,0.0,0.0
1480307975.2,286046974.7,N,0.0,0.0
1480307995.0,286046975.1,N,0.0,0.0
1480307995.9,286046975.1,N,0.0,0.0
1480308015.8,286046975.5,N,0.0,0.0
1480308035.6,286046973.1,N,0.0,0.0
1480308055.4,286046973.0,N,0.0,0.0
1480308075.3,286046973.0,N,0.0,0.0
1480308095.1,286046973.1,N,0.0,0.0
1480308115.8,286046973.4,N,0.0,0.0
1480308135.7,286046973.5,N,0.0,0.0
1480308155.5,286046971.7,N,0.0,0.0
1480308175.4,286046972.1,N,0.0,0.0
1480308195.2,286046972.4,N,0.0,0.0
1480308215.0,286046969.9,N,0.0,0.0
1480308215.9,286046969.9,N,0.0,0.0
1480308235.8,286046970.2,N,0.0,0.0
1480308255.6,286046967.7,N,0.0,0.0
1480308275.5,286046968.2,N,0.0,0.0
1480308295.3,286046968.4,N,0.0,0.0
1480308315.1,286046968.6,N,0.0,0.0
1480308335.9,286046966.1,N,0.0,0.0
1480308355.7,286046966.3,N,0.0,0.0
1480308375.5,286046966.1,N,0.0,0.0
1480308395.4,286046966.6,N,0.0,0.0
1480308415.2,286046966.8,N,0.0,0.0
1480308435.1,286046967.3,N,0.0,0.0
1480308436.0,286046967.3,N,0.0,0.0
1480308455.8,286046967.6,N,0.0,0.0
1480308475.6,286046964.7,N,0.0,0.0
1480308495.5,286046965.4,N,0.0,0.0
1480308515.3,286046965.6,N,0.0,0.0
1480308535.2,286046965.5,N,0.0,0.0
1480308555.9,286046965.9,N,0.0,0.0
1480308575.7,286046963.4,N,0.0,0.0
1480308595.6,286046963.5,N,0.0,0.0
1480308615.4,286046966.0,N,0.0,0.0
1480308635.2,286046963.2,N,0.0,0.0
1480308655.1,286046964.2,N,0.0,0.0
1480308656.0,286046964.2,N,0.0,0.0
1480308675.8,286046963.9,N,0.0,0.0
1480308695.7,286046963.2,N,0.0,0.0
1480308715.5,286046964.1,N,0.0,0.0
1480308735.3,286046964.4,N,0.0,0.0
1480308755.2,286046962.1,N,0.0,0.0
1480308775.0,286046962.3,N,0.0,0.0
1480308775.9,286046962.3,N,0.0,0.0
1480308795.8,286046959.7,N,0.0,0.0
1480308815.6,286046959.9,N,0.0,0.0
1480308835.4,286046960.6,N,0.0,0.0
1480308855.3,286046960.7,N,0.0,0.0
1480308875.1,286046961.0,N,0.0,0.0
1480308895.8,286046958.6,N,0.0,0.0
1480308915.7,286046959.3,N,0.0,0.0
1480308935.5,286046959.3,N,0.0,0.0
1480308955.4,286046959.1,N,0.0,0.0
1480308975.2,286046959.2,N,0.0,0.0
1480308995.0,286046959.5,N,0.0,0.0
1480308995.9,286046959.5,N,0.0,0.0
1480309015.8,286046959.2,N,0.0,0.0
1480309035.6,286046957.5,N,0.0,0.0
1480309055.5,286046955.1,N,0.0,0.0
1480309075.3,286046955.6,N,0.0,0.0
1480309095.1,286046955.2,N,0.0,0.0
1480309115.9,286046955.7,N,0.0,0.0
1480309135.7,286046955.4,N,0.0,0.0
1480309155.5,286046955.6,N,0.0,0.0
1480309175.4,286046953.4,N,0.0,0.0
1480309195.2,286046953.4,N,0.0,0.0
